Location: Bodham
(52.9000°N, 1.1667°E)
Time: 14:53:24
(UTC+00:00)

Cosmos 2112 Rocket - Pass Details

Date: 15 October 2025
Orbit: 753 x 782 km, 74.0° (Epoch: 13 November)

Event Time Altitude Azimuth Distance (km) Brightness Sun altitude
Rises 03:05:50 0° 335° (NNW) 3,260 7.3 -29.5°
Reaches altitude 10° 03:09:56 10° 6° (N) 2,321 6.8 -29.0°
Maximum altitude 03:11:58 12° 29° (NNE) 2,171 7.0 -28.7°
Drops below altitude 10° 03:14:00 10° 52° (NE) 2,310 7.4 -28.4°
Sets 03:18:02 0° 83° (E) 3,225 8.3 -27.9°
